カタリナ彗星

330P/Catalina (1999)

English version
Home page
Updated on October 24, 2015

---------------------------------------------------------------------

・ プロフィール

符号 330P/1999 V1
発見日 1999年11月5日
発見光度 17.6等
発見者 C. W. Hergenrother (Catalina Sky Survey)

・ 軌道要素

Epoch 1999 Oct. 29.0 TT = JDT 2451480.5
T 1999 Oct. 25.07445 TT                                 MPCW
q   2.9442922            (2000.0)            P               Q
n   0.05880372     Peri.  186.69798     -0.51127206     -0.82379448
a   6.5493700      Node   294.31158     +0.80044347     -0.35271823
e   0.5504465      Incl.   15.58711     +0.31287558     -0.44379332
P  16.8
From 104 observations 1999 Nov. 5-2015 Oct. 24, mean residual 0".7.

・ 星図

・ 光度変化

        m1 = 11.0 + 5 logΔ + 10.0 log r

---------------------------------------------------------------------

軌道要素はM.P.E.C. 2015-U49に掲載されたものです。
星図は StellaNavigator Ver.2.0 for Windows (アストロアーツ 編著 / アスキー出版局刊) で作成したものです。
光度グラフはComet for Windowsで作成したものです。

---------------------------------------------------------------------

Copyright(C) Seiichi Yoshida (comet@aerith.net). All rights reserved.